Location: Unspecified
(17.6330°N, 0.0000°E)
Time: 21:42:58
(UTC+00:00)

A-11 Canister half - Pass Details

Date: 25 June 2019
Orbit: 1514 x 1685 km, 47.2° (Epoch: 17 July)

Event Time Altitude Azimuth Distance (km) Brightness Sun altitude
Rises 06:03:03 0° 191° (SSW) 4,916 11.3 7.0°
Reaches altitude 10° 06:06:55 10° 180° (S) 3,937 11.0 7.9°
Maximum altitude 06:14:57 27° 126° (SE) 2,821 10.9 9.6°
Drops below altitude 10° 06:22:54 10° 74° (ENE) 3,919 14.3 11.4°
Sets 06:26:40 0° 62° (ENE) 4,890 13.7 12.2°
